Tracking 30072 objects as of 15-Jan-2025
HD Live streaming from Space Station
objects crossing your sky now

STARLINK-30885

Track STARLINK-30885 now!
10-day predictions
STARLINK-30885 is classified as:


NORAD ID: 58361
Int'l Code: 2023-177L
Perigee: 565.1 km
Apogee: 567.4 km
Inclination: 43.0 °
Period: 95.8 minutes
Semi major axis: 6937 km
RCS: Unknown
Launch date: November 18, 2023
Source: United States (US)
Launch site: AIR FORCE EASTERN TEST RANGE (AFETR)
Your satellite tracking list
Your tracking list is empty




NASA's NSSDC Master Catalog

Two Line Element Set (TLE):
1 58361U 23177L   25014.61848012 -.00000226  00000-0 -16766-5 0  9998
2 58361  43.0016 108.9609 0001656 272.0254  88.0399 15.02532145 65187
Source of the keplerian elements: AFSPC